Oscoda, MI

12:28 AM EST on December 10, 2019 (GMT -0500)
Oscoda-Wurtsmith

Weather History for KOSC - October, 2019

Change the Weather History Date:

Sunday, October 6, 2019

  Actual Average Record
Temperature  
Mean Temperature 58 °F -  
Max Temperature 67 °F 60 °F 91 °F (2007)
Min Temperature 49 °F 41 °F 26 °F (2003)
Degree Days  
Heating Degree Days 7    
Growing Degree Days 8 (Base 50)    
Moisture  
Dew Point 48 °F    
Average Humidity 70    
Maximum Humidity 90    
Minimum Humidity 39    
Precipitation  
Precipitation 0.00 in - - ()
Sea Level Pressure  
Sea Level Pressure 29.92 in    
Wind  
Wind Speed 10 mph (SW)    
Max Wind Speed 25 mph    
Max Gust Speed 32 mph    
Visibility 10 miles    
Events      
Averages and records for this station are not official NWS values.
T = Trace of Precipitation, MM = Missing Value Source: NWS Daily Summary

Daily Weather History Graph

Daily Weather History Graph

Search for Another Location

Airport or City:

Astronomy

Oct. 06, 2019 Rise Set
Actual Time 7:37 AM EDT 7:05 PM EDT
Civil Twilight 7:08 AM EDT 7:34 PM EDT
Nautical Twilight 6:34 AM EDT 8:08 PM EDT
Astronomical Twilight 6:00 AM EDT 8:41 PM EDT
Moon 4:00 PM EDT (10/6) 12:16 AM EDT (10/6)
Length of Visible Light 12h 26m
Length of Day
11h 28m
First Quarter, 59% of the Moon is Illuminated
Oct 6
First Quarter
Oct 13
Full
Oct 21
Last Quarter
Oct 27
New
Nov 4
First Quarter

Hourly Weather History & Observations

Time (EDT) Temp. Dew Point Humidity Pressure Visibility Wind Dir Wind Speed Gust Speed Precip Events Conditions
12:18 AM 54.5 °F 51.1 °F 88% 29.89 in 10.0 mi SE 8.1 mph - N/A   Mostly Cloudy
12:36 AM 54.7 °F 51.1 °F 88% 29.88 in 10.0 mi South 4.6 mph - N/A   Scattered Clouds
12:55 AM 54.7 °F 51.3 °F 88% 29.88 in 10.0 mi SSW 5.8 mph - N/A   Scattered Clouds
1:15 AM 54.9 °F 51.1 °F 87% 29.87 in 10.0 mi South 5.8 mph - N/A   Clear
1:16 AM 54.9 °F 51.1 °F 87% 29.87 in 10.0 mi SSE 5.8 mph - N/A   Clear
1:39 AM 54.9 °F 51.1 °F 87% 29.88 in 10.0 mi SSW 4.6 mph - N/A   Mostly Cloudy
1:57 AM 54.7 °F 51.3 °F 88% 29.88 in 10.0 mi South 4.6 mph - N/A   Mostly Cloudy
2:15 AM 54.9 °F 51.6 °F 89% 29.89 in 10.0 mi South 5.8 mph - N/A   Mostly Cloudy
2:35 AM 55.0 °F 52.2 °F 90% 29.88 in 10.0 mi South 5.8 mph - N/A   Light Drizzle
2:36 AM 55.0 °F 52.2 °F 90% 29.88 in 10.0 mi South 5.8 mph - N/A   Light Drizzle
2:55 AM 55.4 °F 52.2 °F 89% 29.88 in 10.0 mi SSW 6.9 mph - N/A   Overcast
3:00 AM 55.6 °F 52.3 °F 89% 29.88 in 10.0 mi SSW 8.1 mph - N/A   Overcast
3:18 AM 55.6 °F 52.3 °F 89% 29.87 in 10.0 mi SSW 9.2 mph - N/A   Drizzle
3:36 AM 55.6 °F 52.7 °F 90% 29.86 in 7.0 mi SSW 11.5 mph 17.3 mph N/A   Light Drizzle
3:55 AM 55.8 °F 52.7 °F 89% 29.86 in 10.0 mi SSW 12.7 mph - N/A   Overcast
3:56 AM 55.8 °F 52.7 °F 89% 29.86 in 10.0 mi SSW 12.7 mph - N/A   Overcast
4:15 AM 55.9 °F 52.7 °F 89% 29.85 in 10.0 mi SSW 11.5 mph 18.4 mph N/A   Overcast
4:16 AM 55.9 °F 52.7 °F 89% 29.85 in 10.0 mi SSW 11.5 mph 18.4 mph N/A   Overcast
4:39 AM 55.9 °F 52.7 °F 89% 29.85 in 10.0 mi SSW 9.2 mph - N/A   Overcast
4:57 AM 56.1 °F 52.7 °F 88% 29.85 in 10.0 mi SSW 12.7 mph - N/A   Overcast
5:15 AM 56.3 °F 52.7 °F 88% 29.85 in 10.0 mi SW 12.7 mph - N/A   Overcast
5:16 AM 56.3 °F 52.7 °F 88% 29.85 in 10.0 mi SW 12.7 mph - N/A   Overcast
5:35 AM 56.3 °F 52.7 °F 88% 29.84 in 10.0 mi SW 12.7 mph - N/A   Overcast
5:36 AM 56.3 °F 52.7 °F 88% 29.84 in 10.0 mi SW 13.8 mph - N/A   Overcast
5:55 AM 56.5 °F 52.9 °F 88% 29.84 in 10.0 mi SW 13.8 mph - N/A   Overcast
6:18 AM 56.5 °F 53.1 °F 88% 29.85 in 10.0 mi SW 11.5 mph - N/A   Overcast
6:36 AM 56.7 °F 53.6 °F 89% 29.85 in 10.0 mi SW 10.4 mph 16.1 mph N/A   Overcast
6:55 AM 57.2 °F 53.8 °F 88% 29.85 in 10.0 mi SW 10.4 mph 17.3 mph N/A   Overcast
6:56 AM 57.2 °F 53.8 °F 88% 29.85 in 10.0 mi SW 11.5 mph 17.3 mph N/A   Overcast
7:15 AM 57.2 °F 54.0 °F 89% 29.86 in 10.0 mi SW 13.8 mph - N/A   Overcast
7:39 AM 57.4 °F 54.1 °F 89% 29.86 in 10.0 mi SSW 9.2 mph - N/A   Overcast
7:57 AM 57.0 °F 53.8 °F 89% 29.87 in 10.0 mi SSW 10.4 mph - N/A   Mostly Cloudy
8:15 AM 57.6 °F 54.5 °F 90% 29.87 in 10.0 mi SSW 10.4 mph - N/A   Overcast
8:16 AM 57.6 °F 54.5 °F 90% 29.87 in 10.0 mi SSW 9.2 mph - N/A   Overcast
8:35 AM 58.1 °F 54.7 °F 88% 29.88 in 10.0 mi SSW 11.5 mph 16.1 mph N/A   Overcast
8:55 AM 58.5 °F 54.7 °F 87% 29.88 in 10.0 mi SW 11.5 mph 17.3 mph N/A   Overcast
9:18 AM 59.4 °F 54.7 °F 84% 29.88 in 10.0 mi SW 12.7 mph 21.9 mph N/A   Overcast
9:36 AM 59.9 °F 54.0 °F 81% 29.88 in 10.0 mi WSW 18.4 mph 23.0 mph N/A   Overcast
9:55 AM 61.2 °F 53.8 °F 77% 29.88 in 10.0 mi WSW 19.6 mph 24.2 mph N/A   Mostly Cloudy
10:15 AM 60.8 °F 48.7 °F 64% 29.90 in 10.0 mi WSW 18.4 mph 28.8 mph N/A   Scattered Clouds
10:39 AM 60.8 °F 47.7 °F 62% 29.90 in 10.0 mi West 21.9 mph 27.6 mph N/A   Clear
10:57 AM 60.6 °F 46.9 °F 61% 29.91 in 10.0 mi West 25.3 mph 32.2 mph N/A   Clear
11:15 AM 61.7 °F 47.8 °F 60% 29.92 in 10.0 mi West 17.3 mph 26.5 mph N/A   Clear
11:35 AM 62.1 °F 47.8 °F 60% 29.92 in 10.0 mi West 16.1 mph 27.6 mph N/A   Clear
11:55 AM 62.6 °F 47.5 °F 58% 29.92 in 10.0 mi West 19.6 mph 26.5 mph N/A   Clear
12:18 PM 63.1 °F 46.8 °F 55% 29.93 in 10.0 mi West 18.4 mph 24.2 mph N/A   Clear
12:35 PM 63.5 °F 45.9 °F 53% 29.92 in 10.0 mi WSW 16.1 mph 26.5 mph N/A   Clear
12:55 PM 64.0 °F 45.7 °F 51% 29.93 in 10.0 mi West 17.3 mph 21.9 mph N/A   Clear
12:56 PM 64.2 °F 45.5 °F 51% 29.93 in 10.0 mi West 17.3 mph 21.9 mph N/A   Clear
1:15 PM 64.6 °F 46.0 °F 51% 29.94 in 10.0 mi West 18.4 mph 23.0 mph N/A   Clear
1:39 PM 64.0 °F 44.8 °F 50% 29.95 in 10.0 mi WSW 23.0 mph 26.5 mph N/A   Scattered Clouds
1:57 PM 65.5 °F 45.0 °F 47% 29.95 in 10.0 mi West 19.6 mph 26.5 mph N/A   Scattered Clouds
2:16 PM 66.0 °F 44.6 °F 46% 29.95 in 10.0 mi WSW 19.6 mph 31.1 mph N/A   Clear
2:35 PM 66.4 °F 43.3 °F 43% 29.95 in 10.0 mi West 20.7 mph 27.6 mph N/A   Clear
2:55 PM 66.2 °F 43.3 °F 44% 29.95 in 10.0 mi West 18.4 mph 24.2 mph N/A   Clear
3:00 PM 66.7 °F 43.2 °F 42% 29.95 in 10.0 mi West 16.1 mph 24.2 mph N/A   Clear
3:18 PM 66.7 °F 44.1 °F 44% 29.95 in 10.0 mi West 13.8 mph 19.6 mph N/A   Scattered Clouds
3:36 PM 66.2 °F 44.2 °F 45% 29.95 in 10.0 mi WSW 12.7 mph 23.0 mph N/A   Mostly Cloudy
3:55 PM 66.9 °F 43.2 °F 42% 29.95 in 10.0 mi West 13.8 mph 19.6 mph N/A   Mostly Cloudy
4:15 PM 67.6 °F 42.1 °F 39% 29.96 in 10.0 mi WSW 17.3 mph 24.2 mph N/A   Mostly Cloudy
4:39 PM 66.9 °F 42.3 °F 41% 29.96 in 10.0 mi West 17.3 mph 21.9 mph N/A   Scattered Clouds
4:57 PM 66.2 °F 43.3 °F 44% 29.96 in 10.0 mi West 10.4 mph 16.1 mph N/A   Scattered Clouds
5:15 PM 66.4 °F 41.7 °F 41% 29.95 in 10.0 mi West 12.7 mph 19.6 mph N/A   Scattered Clouds
5:35 PM 66.2 °F 41.0 °F 40% 29.95 in 10.0 mi West 11.5 mph - N/A   Scattered Clouds
5:55 PM 64.2 °F 40.5 °F 42% 29.96 in 10.0 mi WSW 11.5 mph 17.3 mph N/A   Scattered Clouds
6:00 PM 63.5 °F 40.5 °F 43% 29.96 in 10.0 mi WSW 12.7 mph 16.1 mph N/A   Scattered Clouds
6:18 PM 63.5 °F 41.9 °F 45% 29.96 in 10.0 mi WSW 8.1 mph - N/A   Scattered Clouds
6:36 PM 61.9 °F 42.8 °F 50% 29.96 in 10.0 mi SW 6.9 mph - N/A   Scattered Clouds
6:55 PM 61.0 °F 42.4 °F 51% 29.97 in 10.0 mi SW 6.9 mph - N/A   Clear
7:15 PM 59.0 °F 42.1 °F 53% 29.98 in 10.0 mi SW 5.8 mph - N/A   Clear
7:16 PM 58.6 °F 42.1 °F 54% 29.98 in 10.0 mi SW 5.8 mph - N/A   Clear
7:39 PM 56.8 °F 43.0 °F 60% 29.99 in 10.0 mi SW 4.6 mph - N/A   Clear
7:57 PM 56.3 °F 43.0 °F 61% 29.99 in 10.0 mi SSW 4.6 mph - N/A   Clear
8:15 PM 52.5 °F 42.8 °F 70% 29.99 in 10.0 mi SW 5.8 mph - N/A   Clear
8:35 PM 50.7 °F 42.8 °F 74% 29.99 in 10.0 mi SW 6.9 mph - N/A   Clear
8:55 PM 49.6 °F 42.8 °F 77% 30.00 in 10.0 mi SW 6.9 mph - N/A   Clear
8:59 PM 50.0 °F 42.8 °F 76% 30.00 in 10.0 mi SW 6.9 mph - N/A   Clear
9:18 PM 53.6 °F 44.1 °F 70% 30.01 in 10.0 mi SW 8.1 mph - N/A   Clear
9:36 PM 53.4 °F 43.7 °F 70% 30.01 in 10.0 mi SW 6.9 mph - N/A   Clear
9:55 PM 51.3 °F 43.0 °F 73% 30.01 in 10.0 mi SW 6.9 mph - N/A   Clear
10:15 PM 54.5 °F 43.7 °F 67% 30.02 in 10.0 mi SW 9.2 mph - N/A   Clear
10:16 PM 54.5 °F 43.7 °F 67% 30.02 in 10.0 mi SW 9.2 mph - N/A   Clear
10:39 PM 54.3 °F 43.7 °F 67% 30.01 in 10.0 mi SW 8.1 mph - N/A   Clear
10:57 PM 54.1 °F 43.9 °F 68% 30.01 in 10.0 mi SW 9.2 mph - N/A   Clear
11:15 PM 54.5 °F 44.1 °F 68% 30.01 in 10.0 mi SW 9.2 mph - N/A   Clear
11:35 PM 53.8 °F 44.2 °F 70% 30.01 in 10.0 mi SW 10.4 mph - N/A   Clear
11:55 PM 53.4 °F 44.8 °F 73% 30.02 in 10.0 mi SW 9.2 mph - N/A   Clear